Regional Weather Roundup
Issued by NWS

Current Version | Previous Version | Graphics & Text | Print | Product List | Glossary On
Versions: 1 2 3 4 5 6 7 8 9 10 11 12 13 14 15 16 17 18 19 20 21 22 23 24 25 26 27 28 29 30 31 32 33 34 35 36 37 38 39 40 41 42 43 44 45 46 47 48 49 50
906
ASHW40 PHFO 210712
RWRHI

WEATHER ROUNDUP FOR HAWAII
NATIONAL WEATHER SERVICE HONOLULU HI
900 PM HST FRI JUL 20 2018

THIS IS AN AUTOMATED REPORT THAT HAS NOT BEEN QUALITY CONTROLLED.

NOTE..."FAIR" INDICATES FEW OR NO CLOUDS BELOW 12,000 FEET WITH NO
SIGNIFICANT WEATHER AND/OR OBSTRUCTIONS TO VISIBILITY.

* - THESE SITES REPORT LIMITED FIELDS
# - BUOY DATA PROVIDED BY PACIFIC ISLANDS OCEAN OBSERVING SYSTEM.

HIZ001>004-210800-
KAUAI-NIIHAU-

CITY           SKY/WX    TMP DP  RH WIND       PRES   REMARKS
LIHUE APT      MOCLDY    79  73  82 NE15      30.03R
PORT ALLEN*      N/A     77 N/A N/A E17         N/A
POIPU*           N/A     77 N/A N/A NE8G18      N/A
PRINCEVILLE*     N/A     77 N/A N/A E7G13       N/A
KOKOLE POINT*  NOT AVBL
MOLOAA DAIRY*    N/A     75  70  83 E3G12       N/A
WAIMEA HTS*    NOT AVBL
PUU OPAE*      NOT AVBL
PUU LUA*       NOT AVBL
MAKAHA RIDGE*  NOT AVBL
$$

HIZ005>011-210800-
OAHU-

CITY           SKY/WX    TMP DP  RH WIND       PRES   REMARKS
HONOLULU       CLOUDY    79  67  66 E10       29.99R
KALAELOA       MOCLDY    78  68  71 VRB3      30.01R
KANEOHE MCB    MOCLDY    79  71  76 E9G17     29.98R
WHEELER FIELD  DRIZZLE   73  68  83 E3        30.01R
BELLOWS*       NOT AVBL
KAHUKU*        NOT AVBL
WHEELER*       NOT AVBL
WAIANAE HARBOR NOT AVBL
DILLINGHAM*    NOT AVBL
KAHUKU TRN*      N/A     86  79  79 W5G17       N/A  HX  99
KAWAILOA*        N/A     72  66  83 E8G20       N/A
KII*             N/A     79  72  78 E16         N/A
MAKUA RANGE*     N/A     72  59  64 NE5         N/A
OAHU FOREST NW NOT AVBL
SCHOFIELD BRK*   N/A     73  66  78 E3          N/A
SCHOFIELD S*   NOT AVBL
WAIANAE VLY*   NOT AVBL
KUAOKALA*      NOT AVBL
HONOULIUULI*   NOT AVBL
MOKUOLOE IS*   NOT AVBL
PALEHUA*       NOT AVBL
WAIAWA PHB*    NOT AVBL
$$

HIZ012>013-210800-
MOLOKAI-

CITY           SKY/WX    TMP DP  RH WIND       PRES   REMARKS
MOLOKAI AIRPT  CLOUDY    78  68  71 NE13G20   30.01R
KALAUPAPA      NOT AVBL
MAKAPULAPAI*   NOT AVBL
MOLOKAI 1*     NOT AVBL
PUU ALII*      NOT AVBL
$$

HIZ016-210800-
KAHOOLAWE-

CITY           SKY/WX    TMP DP  RH WIND       PRES   REMARKS
KAHOOLAWE*     NOT AVBL
HAKIOAWA*      NOT AVBL
HONOKANAIA*    NOT AVBL
KANELOA*         N/A     75  68  78 E17G32    30.04R
KEALIALALO*    NOT AVBL
LUA MAKIKA*    NOT AVBL
$$

HIZ014>015-210800-
LANAI-

CITY           SKY/WX    TMP DP  RH WIND       PRES   REMARKS
LANAI CITY     FAIR      72  66  81 NE8       30.05R
LANAI 1*       NOT AVBL
$$

HIZ017>028-210800-
MAUI-

CITY           SKY/WX    TMP DP  RH WIND       PRES   REMARKS
KAHULUI        CLOUDY    77  70  79 NE13G21   29.99R
KAPALUA-W MAUI NOT AVBL
HANA AIRPORT   NOT AVBL
HANA*            N/A     77 N/A N/A E6          N/A
HALEAKALA SUMM   N/A     52   5  15 NE7         N/A
MAALAEA BAY*   NOT AVBL
HALEAKALA*     NOT AVBL
KAUPO GAP*     NOT AVBL
KULA 1*          N/A     53  53  98 CALM        N/A
$$

HIZ023>026-210800-
BIG ISLAND OF HAWAII COAST AND LOWER SLOPES-

CITY           SKY/WX    TMP DP  RH WIND       PRES   REMARKS
KAILUA KONA    CLOUDY    82  63  52 NE6       29.95R
HILO           LGT RAIN  76  71  85 SE9       30.02R
HONOKAA*         N/A     70 N/A N/A VRB1        N/A
KAWAIHAE MWT*    N/A     82 N/A N/A W3          N/A
KAWAIHAE*      NOT AVBL
SOUTH POINT*     N/A     73 N/A N/A N15G22      N/A
UPOLU AIRPORT* NOT AVBL
KAMUELA*       MOSUNNY   64  63  94 NE16      30.08R
HAKALAU*         N/A     53  53 100 SW1         N/A
KALOKO-HONOKO* NOT AVBL
PALI 2*          N/A     66  61  82 NE13G21     N/A
KEALAKOMO*       N/A     79  66  65 NE10G29     N/A
KAUPULEHU*     NOT AVBL
KAPAPALA*        N/A     66  65  95 N2G8        N/A
LOWER KAHUKU*  NOT AVBL
PUHE CS*       NOT AVBL
PUHO CS*       NOT AVBL
PTA KEAMUKU*     N/A     63  55  77 E10         N/A
WAIKOLOA*      NOT AVBL
$$

HIZ027>028-210800-
BIG ISLAND OF HAWAII INTERIOR AND SUMMMITS-

CITY           SKY/WX    TMP DP  RH WIND       PRES   REMARKS
BRADSHAW FIELD CLOUDY    55  49  81 SE3       30.29R
MK VISITOR CEN   N/A     52  36  54 NE3         N/A
MAUNA KEA*       N/A     41  -2  16 NE9         N/A
MAUNA LOA*     NOT AVBL
MAUNA LOA 1*   NOT AVBL
PTA KIPUKA*      N/A     61  57  88 E1          N/A
PTA RANGE 17*    N/A     72  64  78 NW7G13      N/A
PTA WEST*        N/A     61  54  77 SE3         N/A
NENE CABIN*    NOT AVBL
AHUMOA*        NOT AVBL
PTA PORTABLE*  NOT AVBL
PUU MALI*        N/A     55  37  50 NE3G9       N/A
$$

HIC003-210800-
NORTHWEST ISLANDS-

CITY           SKY/WX    TMP DP  RH WIND       PRES   REMARKS
MIDWAY ISLAND  MOCLDY    77  68  73 NE17      30.15R
MIDWAY NOS*    NOT AVBL
FRENCH FRIGATE NOT AVBL
$$

PHZ110>124-180-210800-
BUOY REPORTS

STATION/POSITION TIME  TEMP    WIND        PRES    WAVE   SWELL
                       AIR SEA DIR/SP/G            HT/PER HT/DIR
                 (UTC) (F)     (DEG/KT/KT) (MB)    (FT/S) (FT/D)
BUOY 51101       NOT AVBL
BUOY 51100       NOT AVBL
BUOY 51002       0650   80      70/ 14/ 16 1013.9R   7/ 8   5/ 90
BUOY 51003       0650   80 81   70/ 14/ 16 1013.8R   5/15   5/140
BUOY 51004       0650   78 80   60/ 14/ 17 1014.4R   6/15   5/190
WAIMEA BAY#      NOT AVBL
MOKAPU POINT#    0634      80                N/A     5/ 7   2/130
LANAI#           NOT AVBL
BARBERS PT 2#    NOT AVBL
PAUWELA#         0630      79                N/A     5/ 8
HILO#            0657      79                N/A     6/ 8
KANEOHE BAY#     0654      79                N/A     4/ 7
KANEOHE BAY 2#   NOT AVBL
HANALEI#         0636      81                N/A     6/ 6
KAHULUI HARBOR   0636      81   70/  7/ 12 1015.5R
HONOLULU HARBOR  0636      80   80/  5/ 10 1015.2R
PEARL HARBOR#    0630      80                N/A     4/15   2/160
KILO NALU        NOT AVBL
HILO HARBOR      0636      79  300/  7/  8 1015.3R
MOKUOLOE         0636   79 82  100/  9/ 13 1015.8R
NAWILIWILI       0636      82   50/ 10/ 14 1016.3R
WHOTS BUOY       NOT AVBL
BUOY 51028       NOT AVBL
$$

......................KEY........................................
  SKY/WX - SKY CONDITIONS/PRESENT WEATHER
  TMP    - TEMPERATURE IN FAHRENHEIT
  DWPT   - DEWPOINT IN FAHRENHEIT
  RH     - RELATIVE HUMIDITY IN PERCENT
  WIND   - DIRECTION AND SPEED /MPH FOR ISLANDS...KTS FOR BUOYS/
  PRES   - MEAN SEA LEVEL PRESSURE IN INCHES OF HG
  VSB    - VISIBILITY IN MILES
  HX     - HEAT INDEX
  WCI    - WIND CHILL INDEX
  VRB    - VARIABLE WIND DIRECTION
  N/A    - NOT AVAILABLE




USA.gov is the U.S. government's official web portal to all federal, state and local government web resources and services.